User: anonymous   Login
Location: Kuffner-Sternwarte
(48.2130°N, 16.2960°E)
Time: 11:06:43
(UTC+02:00)
Language:

COROT - Orbit

View from above orbital plane
View from above orbital plane
View from above satellite
View from above satellite

Ground track
Ground track

The orbit data is extracted from the following two-line orbital elements,

1 29678U 06063A   17115.85721667 +.00000233 +00000-0 +50849-4 0  9992
2 29678 090.0359 015.0134 0199815 291.3968 066.6021 14.44051888532515
Epoch (UTC): 25 April 2017 20:34:23
Eccentricity: 0.0199815
inclination: 90.0359°
perigee height: 603 km
apogee height: 887 km
right ascension of ascending node: 15.0134°
argument of perigee: 291.3968°
revolutions per day: 14.44051888
mean anomaly at epoch: 66.6021°
orbit number at epoch: 53251

The dashed part of the orbit path shows where the satellite is in the earth's shadow,  

DLR